Change the Weather History Date:

Monday, February 7, 2000

  Actual Average Record
Temperature  
Mean Temperature 22 °F -  
Max Temperature 33 °F 31 °F 50 °F (2009)
Min Temperature 10 °F 17 °F 1 °F (2007)
Degree Days  
Heating Degree Days 42    
Moisture  
Dew Point 18 °F    
Average Humidity 69    
Maximum Humidity 88    
Minimum Humidity 41    
Precipitation  
Precipitation 0.00 in - - ()
Snow  
Snow 0.00 in - - ()
Snow Depth 4.00 in    
Sea Level Pressure  
Sea Level Pressure 30.19 in    
Wind  
Wind Speed 11 mph (NW)    
Max Wind Speed 16 mph    
Max Gust Speed 24 mph    
Visibility 8 miles    
Events Snow    
Averages and records for this station are not official NWS values.
T = Trace of Precipitation, MM = Missing Value Source: NWS Daily Summary

Daily Weather History Graph

Daily Weather History Graph

Search for Another Location

Airport or City:

Trip Planner

Search our weather history database for the weather conditions in past years. The results will help you decide how hot, cold, wet, or windy it might be!

Date:

Astronomy

Feb. 07, 2000 Rise Set
Actual Time 7:41 AM EST 5:54 PM EST
Civil Twilight 7:12 AM EST 6:23 PM EST
Nautical Twilight 6:38 AM EST 6:57 PM EST
Astronomical Twilight 6:06 AM EST 7:30 PM EST
Moon 9:01 AM EST (2/7) 8:12 PM EST (2/7)
Length of Visible Light 11h 11m
Length of Day
10h 12m
Waxing Crescent, 5% of the Moon is Illuminated
Feb 7
Waxing Crescent
Feb 12
First Quarter
Feb 19
Full
Feb 26
Last Quarter
Mar 6
New

Hourly Weather History & Observations

Time (EST) Temp. Windchill Dew Point Humidity Pressure Visibility Wind Dir Wind Speed Gust Speed Precip Events Conditions
12:53 AM 23.0 °F 13.9 °F 18.0 °F 81% 30.04 in 6.0 mi WSW 8.1 mph - N/A   Haze
1:53 AM 27.0 °F 15.6 °F 21.0 °F 78% 30.02 in 7.0 mi WSW 13.8 mph - N/A   Overcast
2:00 AM 26.6 °F 14.3 °F 21.2 °F 80% 29.99 in 7.0 mi West 16.1 mph - N/A   Overcast
2:12 AM 28.4 °F 17.0 °F 23.0 °F 80% 29.99 in 7.0 mi West 15.0 mph 21.9 mph N/A   Overcast
2:53 AM 28.9 °F 17.3 °F 24.1 °F 82% 30.03 in 6.0 mi West 16.1 mph - N/A   Haze
3:44 AM 30.2 °F 18.9 °F 26.6 °F 86% 29.99 in 6.0 mi West 16.1 mph - N/A   Overcast
3:53 AM 30.0 °F 19.1 °F 27.0 °F 88% 30.03 in 5.0 mi West 15.0 mph - N/A   Overcast
4:37 AM 30.2 °F 18.9 °F 26.6 °F 86% 30.01 in 5.0 mi West 16.1 mph 24.2 mph N/A   Overcast
4:53 AM 32.0 °F 22.5 °F 27.0 °F 82% 30.04 in 6.0 mi WNW 12.7 mph - N/A   Haze
5:53 AM 33.1 °F 23.0 °F 26.1 °F 75% 30.06 in 7.0 mi WNW 15.0 mph - N/A   Overcast
6:53 AM 32.0 °F 22.5 °F 24.1 °F 73% 30.08 in 8.0 mi WNW 12.7 mph - N/A   Overcast
7:53 AM 32.0 °F 24.2 °F 23.0 °F 69% 30.12 in 7.0 mi WNW 9.2 mph - N/A   Overcast
8:53 AM 30.9 °F 23.5 °F 23.0 °F 72% 30.14 in 7.0 mi WNW 8.1 mph - N/A   Overcast
9:53 AM 32.0 °F 23.6 °F 24.1 °F 73% 30.17 in 6.0 mi NW 10.4 mph - N/A   Haze
10:18 AM 30.2 °F 20.2 °F 24.8 °F 80% 30.15 in 4.0 mi North 12.7 mph 21.9 mph 0.00 in Snow Light Snow
10:36 AM 30.2 °F 19.8 °F 19.4 °F 64% 30.16 in 9.0 mi North 13.8 mph 20.7 mph 0.00 in Snow Light Snow
10:53 AM 30.9 °F 20.7 °F 17.1 °F 57% 30.21 in 10.0 mi North 13.8 mph - 0.00 in   Overcast
11:53 AM 30.9 °F 21.2 °F 16.0 °F 54% 30.23 in 10.0 mi North 12.7 mph - N/A   Mostly Cloudy
12:53 PM 30.0 °F 20.0 °F 14.0 °F 51% 30.24 in 10.0 mi North 12.7 mph - N/A   Partly Cloudy
1:53 PM 30.0 °F 20.5 °F 12.9 °F 49% 30.24 in 10.0 mi North 11.5 mph - N/A   Partly Cloudy
2:53 PM 30.0 °F 20.0 °F 12.0 °F 47% 30.25 in 10.0 mi NNE 12.7 mph - N/A   Partly Cloudy
3:53 PM 30.0 °F 21.1 °F 9.0 °F 41% 30.28 in 10.0 mi NW 10.4 mph - N/A   Partly Cloudy
4:53 PM 28.0 °F 18.1 °F 9.0 °F 45% 30.31 in 10.0 mi North 11.5 mph - N/A   Partly Cloudy
5:53 PM 26.1 °F 19.4 °F 10.9 °F 53% 30.34 in 10.0 mi NNW 5.8 mph - N/A   Partly Cloudy
6:53 PM 23.0 °F 18.4 °F 10.9 °F 60% 30.38 in 10.0 mi NE 3.5 mph - N/A   Partly Cloudy
7:53 PM 19.9 °F 14.9 °F 10.0 °F 65% 30.40 in 10.0 mi East 3.5 mph - N/A   Partly Cloudy
8:53 PM 18.0 °F - 10.9 °F 74% 30.43 in 10.0 mi Calm Calm - N/A   Partly Cloudy
9:53 PM 12.9 °F 6.9 °F 9.0 °F 84% 30.44 in 10.0 mi ENE 3.5 mph - N/A   Clear
10:53 PM 12.0 °F 5.9 °F 8.1 °F 84% 30.46 in 10.0 mi ENE 3.5 mph - N/A   Clear
11:53 PM 10.9 °F - 1.9 °F 67% 30.47 in 9.0 mi Calm Calm - N/A   Clear